Weather in Komsomolskoe

Russia / Chuvash Republic     55°15′43″N   47°32′11″E
temp.,
°C
wind,
m/s
gust,
m/s
humid.,
%
clouds,
%
prec.,
mm/h
press.,
hPa
HPBL,
m
13 april, tue
tue1300:00+5ese389990 0.0 1036161
03:00+6se3899100 0.0 1035181
06:00+6se3799100 0.0 1035181
09:00+9sse469473 0.0 1035192
12:00+16sse575890 0.0 1033661
15:00+18s574112 0.0 10321128
18:00+14sse376240 0.0 1031110
21:00+11sse35765 0.0 103163
14 april, wed
wed1400:00+9s35835 0.0 103166
03:00+8sse338080 0.0 103028
06:00+7sse34795 0.0 102965
09:00+12sse46563 0.0 1029322
12:00+16sse57438 0.0 1027742
15:00+17sse67515 0.0 1025927
18:00+14se47663 0.0 1024211
21:00+11sse37775 0.0 1024107
15 april, thu
thu1500:00+10sse33825 0.0 102335
03:00+8sse22850 0.0 102213
06:00+8sse22870 0.0 102231
09:00+13sse35690 0.0 1021354
12:00+17sse34525 0.0 10201204
15:00+18sse334318 0.0 10181662
18:00+16sse22536 0.0 101726
21:00+12w016519 0.0 101810
16 april, fri
fri1600:00+11wnw11695 0.0 101710
03:00+9nw11743 0.0 101710
06:00+9n2278100 0.0 101715
09:00+12ne56768 0.0 1018423
12:00+12ne667438 0.0 1019611
15:00+12ne676982 0.0 1019871
18:00+10ne6974100 0.0 1020618
21:00+7nne598291 0.0 1022519
17 april, sat
sat1700:00+7nne497288 0.0 1022463
03:00+3nne49755 0.0 1024215
06:00+3nne49710 0.0 1025275
09:00+7nne69470 0.0 10251084
12:00+9nne89385 0.0 10261656
15:00+9nne89320 0.0 10271710
18:00+6ne694164 0.0 10291404
21:00+3ne410487 0.0 1031299